This is the latest recevied weather packets stored in our database for station/object OZ1IEP-5. If no packets are shown the sender has not sent any weather packets the latest 10 day(s).
| Time | Temp. | Humidity | Pressure | Rain* | Wind** | Luminosity | Snow |
|---|---|---|---|---|---|---|---|
| 1777804208 | 14.44° C | 82% | 1010.1 hPa | 0 mm | - | 269 W/m² | - |
| 1777803606 | 15° C | 83% | 1009.9 hPa | 0 mm | - | 494 W/m² | - |
| 1777803006 | 14.44° C | 82% | 1010 hPa | 0 mm | - | 693 W/m² | - |
| 1777802408 | 14.44° C | 82% | 1010 hPa | 0 mm | - | 710 W/m² | - |
| 1777801806 | 14.44° C | 84% | 1010 hPa | 0 mm | - | 777 W/m² | - |
| 1777801205 | 14.44° C | 84% | 1010.4 hPa | 0 mm | - | 731 W/m² | - |
| 1777800607 | 14.44° C | 83% | 1010.4 hPa | 0 mm | - | 621 W/m² | - |
| 1777800006 | 14.44° C | 84% | 1010.4 hPa | 0 mm | - | 424 W/m² | - |
| 1777799406 | 14.44° C | 84% | 1010.4 hPa | 0 mm | - | 606 W/m² | - |
| 1777798808 | 13.89° C | 85% | 1010.4 hPa | 0 mm | - | 413 W/m² | - |
| 1777798206 | 13.89° C | 86% | 1010.2 hPa | 0 mm | - | 406 W/m² | - |
| 1777797605 | 13.89° C | 87% | 1010.2 hPa | 0 mm | - | 570 W/m² | - |
| 1777797008 | 13.89° C | 87% | 1010.2 hPa | 0 mm | - | 647 W/m² | - |
| 1777796405 | 13.33° C | 88% | 1010.2 hPa | 0 mm | - | 596 W/m² | - |
| 1777795806 | 13.33° C | 88% | 1010.2 hPa | 0 mm | - | 487 W/m² | - |
| 1777795208 | 12.78° C | 89% | 1010.1 hPa | 0 mm | - | 153 W/m² | - |
| 1777794606 | 12.78° C | 90% | 1010 hPa | 0 mm | - | 123 W/m² | - |
| 1777794006 | 12.78° C | 90% | 1010 hPa | 0 mm | - | 153 W/m² | - |
| 1777793408 | 12.22° C | 91% | 1009.9 hPa | 0 mm | - | 193 W/m² | - |
| 1777792805 | 12.22° C | 91% | 1009.8 hPa | 0 mm | - | 158 W/m² | - |
| 1777792206 | 11.67° C | 91% | 1009.8 hPa | 0 mm | - | 125 W/m² | - |
| 1777791608 | 11.67° C | 92% | 1009.8 hPa | 0 mm | - | 90 W/m² | - |
| 1777791006 | 11.67° C | 92% | 1009.7 hPa | 0 mm | - | 86 W/m² | - |
| 1777790406 | 11.11° C | 92% | 1009.8 hPa | 0 mm | - | 132 W/m² | - |
| 1777789808 | 11.11° C | 92% | 1009.7 hPa | 0 mm | - | 88 W/m² | - |
* Rain latest hour (hover to see other rain measurements)
** Current wind speed in m/s (hover to see current wind gust speed)